NORTHEAST SUFFOLK  -  Winter Weather Advisory Winter Weather Advisory        NORTHERN NASSAU  -  Winter Weather Advisory Winter Weather Advisory        NORTHWEST SUFFOLK  -  Winter Weather Advisory Winter Weather Advisory        SOUTHEAST SUFFOLK  -  Winter Weather Advisory Winter Weather Advisory        SOUTHERN NASSAU  -  Winter Weather Advisory Winter Weather Advisory        SOUTHWEST SUFFOLK  -  Winter Weather Advisory Winter Weather Advisory      

Active alerts

Northern Nassau
  Details for Northern Nassau Winter Weather Advisory
Southern Nassau
  Details for Southern Nassau Winter Weather Advisory
Northwest Suffolk
  Details for Northwest Suffolk Winter Weather Advisory
Southwest Suffolk
  Details for Southwest Suffolk Winter Weather Advisory
Northeast Suffolk
  Details for Northeast Suffolk Winter Weather Advisory
Southeast Suffolk
  Details for Southeast Suffolk Winter Weather Advisory


WXM80 ListenWXM80 Stop

You find our weather info also at:

UK Metoffice

WeatherCloud

Weather Underground

Northeastern Weather Network

AWEKAS

Citizen Weather Observer Program (CWOP)

HAMweather, WeatherForYou, PWS Weather


Weather Underground History page Text

Daily Summary for August 15, 2017 Units:  Both    English   Metric
« Previous Day
Next Day »
Daily Weekly Monthly Yearly Custom
  High: Low: Average:
Temperature: 74.5 °F /  23.6 °C 68.0 °F /  20 °C 71.7 °F /  22.1 °C
Dew Point: 71.7 °F /  22.1 °C 66.2 °F /  19 °C 69.4 °F /  20.8 °C
Humidity: 97 % 88 % 93 %
Wind Speed: 2.0 mph /  3.2 km/h - 0.1 mph /  0.2 km/h
Wind Gust: 8.0 mph /  12.9 km/h - -
Wind:- - SSE
Pressure: 29.91 in /  1012.8 hPa 29.83 in /  1010 hPa -
Precipitation: 0.23 in /  5.84 mm    
Historical Graphs
 
 
Tabular Data for August 15, 2017
Time Temperature Dew Point Pressure Wind Wind Speed Wind Gust Humidity Rainfall Rate (Hourly)
00:04 71.0 °F /  21.7 °C 67.9 °F /  19.9 °C 29.90 in /  1012.4 hPa Calm     90 % 0.00 in /  0 mm
00:09 71.0 °F /  21.7 °C 67.9 °F /  19.9 °C 29.90 in /  1012.4 hPa Calm     90 % 0.00 in /  0 mm
00:14 71.0 °F /  21.7 °C 68.2 °F /  20.1 °C 29.90 in /  1012.4 hPa Calm     91 % 0.00 in /  0 mm
00:19 70.9 °F /  21.6 °C 68.1 °F /  20.1 °C 29.90 in /  1012.4 hPa Calm     91 % 0.00 in /  0 mm
00:24 70.9 °F /  21.6 °C 68.1 °F /  20.1 °C 29.90 in /  1012.4 hPa Calm     91 % 0.00 in /  0 mm
00:29 70.9 °F /  21.6 °C 68.1 °F /  20.1 °C 29.90 in /  1012.4 hPa Calm     91 % 0.00 in /  0 mm
00:34 70.9 °F /  21.6 °C 68.1 °F /  20.1 °C 29.90 in /  1012.4 hPa Calm     91 % 0.00 in /  0 mm
00:39 70.9 °F /  21.6 °C 68.5 °F /  20.3 °C 29.90 in /  1012.4 hPa Calm     92 % 0.00 in /  0 mm
00:44 71.0 °F /  21.7 °C 68.6 °F /  20.3 °C 29.90 in /  1012.4 hPa Calm     92 % 0.00 in /  0 mm
00:49 71.0 °F /  21.7 °C 68.6 °F /  20.3 °C 29.90 in /  1012.4 hPa Calm     92 % 0.00 in /  0 mm
00:55 71.1 °F /  21.7 °C 69.0 °F /  20.6 °C 29.90 in /  1012.4 hPa Calm     93 % 0.00 in /  0 mm
01:00 71.1 °F /  21.7 °C 69.0 °F /  20.6 °C 29.90 in /  1012.4 hPa Calm   1.2 mph /  1.9 km/h 93 % 0.00 in /  0 mm
01:05 71.1 °F /  21.7 °C 69.0 °F /  20.6 °C 29.90 in /  1012.4 hPa Calm   1.2 mph /  1.9 km/h 93 % 0.00 in /  0 mm
01:10 71.2 °F /  21.8 °C 69.1 °F /  20.6 °C 29.90 in /  1012.4 hPa Calm     93 % 0.00 in /  0 mm
01:15 71.2 °F /  21.8 °C 69.1 °F /  20.6 °C 29.89 in /  1012.1 hPa Calm     93 % 0.00 in /  0 mm
01:20 71.3 °F /  21.8 °C 68.9 °F /  20.5 °C 29.89 in /  1012.1 hPa Calm     92 % 0.00 in /  0 mm
01:25 71.3 °F /  21.8 °C 69.2 °F /  20.7 °C 29.89 in /  1012.1 hPa Calm   1.2 mph /  1.9 km/h 93 % 0.00 in /  0 mm
01:30 71.4 °F /  21.9 °C 69.0 °F /  20.6 °C 29.89 in /  1012.1 hPa Calm     92 % 0.00 in /  0 mm
01:35 71.4 °F /  21.9 °C 69.0 °F /  20.6 °C 29.89 in /  1012.1 hPa Calm     92 % 0.00 in /  0 mm
01:40 71.5 °F /  21.9 °C 69.1 °F /  20.6 °C 29.89 in /  1012.1 hPa Calm   1.2 mph /  1.9 km/h 92 % 0.00 in /  0 mm
01:45 71.6 °F /  22 °C 69.2 °F /  20.7 °C 29.89 in /  1012.1 hPa Calm     92 % 0.00 in /  0 mm
01:50 71.6 °F /  22 °C 69.2 °F /  20.7 °C 29.89 in /  1012.1 hPa Calm     92 % 0.00 in /  0 mm
01:55 71.7 °F /  22.1 °C 69.3 °F /  20.7 °C 29.89 in /  1012.1 hPa Calm     92 % 0.00 in /  0 mm
02:00 71.7 °F /  22.1 °C 69.3 °F /  20.7 °C 29.89 in /  1012.1 hPa Calm     92 % 0.00 in /  0 mm
02:05 71.7 °F /  22.1 °C 69.3 °F /  20.7 °C 29.89 in /  1012.1 hPa Calm     92 % 0.00 in /  0 mm
02:10 71.7 °F /  22.1 °C 69.3 °F /  20.7 °C 29.89 in /  1012.1 hPa Calm     92 % 0.00 in /  0 mm
02:15 71.8 °F /  22.1 °C 69.3 °F /  20.7 °C 29.89 in /  1012.1 hPa Calm     92 % 0.00 in /  0 mm
02:20 71.8 °F /  22.1 °C 69.3 °F /  20.7 °C 29.89 in /  1012.1 hPa Calm     92 % 0.00 in /  0 mm
02:25 71.8 °F /  22.1 °C 69.3 °F /  20.7 °C 29.89 in /  1012.1 hPa Calm     92 % 0.00 in /  0 mm
02:30 71.8 °F /  22.1 °C 69.3 °F /  20.7 °C 29.89 in /  1012.1 hPa Calm     92 % 0.00 in /  0 mm
02:35 71.8 °F /  22.1 °C 69.3 °F /  20.7 °C 29.89 in /  1012.1 hPa Calm     92 % 0.00 in /  0 mm
02:40 71.8 °F /  22.1 °C 69.3 °F /  20.7 °C 29.90 in /  1012.4 hPa Calm     92 % 0.00 in /  0 mm
02:45 71.8 °F /  22.1 °C 69.3 °F /  20.7 °C 29.90 in /  1012.4 hPa SE 0.1 mph /  0.2 km/h 1.0 mph /  1.6 km/h 92 % 0.00 in /  0 mm
02:50 71.8 °F /  22.1 °C 69.3 °F /  20.7 °C 29.90 in /  1012.4 hPa WSW 0.2 mph /  0.3 km/h 3.5 mph /  5.6 km/h 92 % 0.00 in /  0 mm
02:55 71.8 °F /  22.1 °C 69.3 °F /  20.7 °C 29.90 in /  1012.4 hPa Calm   1.0 mph /  1.6 km/h 92 % 0.00 in /  0 mm
03:00 71.7 °F /  22.1 °C 69.3 °F /  20.7 °C 29.90 in /  1012.4 hPa WSW 0.3 mph /  0.5 km/h 2.0 mph /  3.2 km/h 92 % 0.00 in /  0 mm
03:05 71.7 °F /  22.1 °C 68.9 °F /  20.5 °C 29.90 in /  1012.4 hPa WSW 0.2 mph /  0.3 km/h 1.2 mph /  1.9 km/h 91 % 0.01 in /  0.25 mm
03:10 71.6 °F /  22 °C 68.8 °F /  20.4 °C 29.90 in /  1012.4 hPa Calm   1.2 mph /  1.9 km/h 91 % 0.01 in /  0.25 mm
03:15 71.5 °F /  21.9 °C 68.7 °F /  20.4 °C 29.90 in /  1012.4 hPa Calm     91 % 0.02 in /  0.51 mm
03:20 71.4 °F /  21.9 °C 68.6 °F /  20.3 °C 29.90 in /  1012.4 hPa Calm     91 % 0.02 in /  0.51 mm
03:25 71.3 °F /  21.8 °C 68.5 °F /  20.3 °C 29.90 in /  1012.4 hPa Calm     91 % 0.03 in /  0.76 mm
03:30 71.3 °F /  21.8 °C 68.9 °F /  20.5 °C 29.90 in /  1012.4 hPa WSW 0.1 mph /  0.2 km/h 1.2 mph /  1.9 km/h 92 % 0.04 in /  1.02 mm
03:35 71.2 °F /  21.8 °C 68.4 °F /  20.2 °C 29.90 in /  1012.4 hPa Calm     91 % 0.06 in /  1.52 mm
03:40 71.0 °F /  21.7 °C 68.2 °F /  20.1 °C 29.90 in /  1012.4 hPa Calm   1.2 mph /  1.9 km/h 91 % 0.08 in /  2.03 mm
03:46 70.9 °F /  21.6 °C 68.5 °F /  20.3 °C 29.90 in /  1012.4 hPa Calm   2.0 mph /  3.2 km/h 92 % 0.00 in /  0 mm
03:51 70.8 °F /  21.6 °C 68.4 °F /  20.2 °C 29.90 in /  1012.4 hPa Calm   1.0 mph /  1.6 km/h 92 % 0.00 in /  0 mm
03:56 70.7 °F /  21.5 °C 68.3 °F /  20.2 °C 29.90 in /  1012.4 hPa Calm   1.0 mph /  1.6 km/h 92 % 0.00 in /  0 mm
04:01 70.6 °F /  21.4 °C 68.2 °F /  20.1 °C 29.91 in /  1012.8 hPa Calm     92 % 0.12 in /  3.05 mm
04:06 70.5 °F /  21.4 °C 68.1 °F /  20.1 °C 29.90 in /  1012.4 hPa Calm     92 % 0.12 in /  3.05 mm
04:11 70.4 °F /  21.3 °C 68.3 °F /  20.2 °C 29.90 in /  1012.4 hPa Calm   1.2 mph /  1.9 km/h 93 % 0.12 in /  3.05 mm
04:16 70.2 °F /  21.2 °C 68.1 °F /  20.1 °C 29.90 in /  1012.4 hPa Calm     93 % 0.11 in /  2.79 mm
04:21 70.1 °F /  21.2 °C 68.0 °F /  20 °C 29.89 in /  1012.1 hPa Calm     93 % 0.12 in /  3.05 mm
04:26 70.1 °F /  21.2 °C 68.0 °F /  20 °C 29.90 in /  1012.4 hPa Calm   1.2 mph /  1.9 km/h 93 % 0.11 in /  2.79 mm
04:31 69.9 °F /  21.1 °C 67.8 °F /  19.9 °C 29.89 in /  1012.1 hPa SW 0.5 mph /  0.8 km/h 2.3 mph /  3.7 km/h 93 % 0.09 in /  2.29 mm
04:36 69.8 °F /  21 °C 67.7 °F /  19.8 °C 29.89 in /  1012.1 hPa Calm   2.0 mph /  3.2 km/h 93 % 0.07 in /  1.78 mm
04:41 69.7 °F /  20.9 °C 67.9 °F /  19.9 °C 29.89 in /  1012.1 hPa SW 0.2 mph /  0.3 km/h 1.2 mph /  1.9 km/h 94 % 0.06 in /  1.52 mm
04:46 69.5 °F /  20.8 °C 67.4 °F /  19.7 °C 29.89 in /  1012.1 hPa Calm     93 % 0.05 in /  1.27 mm
04:51 69.4 °F /  20.8 °C 67.3 °F /  19.6 °C 29.90 in /  1012.4 hPa Calm     93 % 0.05 in /  1.27 mm
04:56 69.3 °F /  20.7 °C 67.2 °F /  19.6 °C 29.90 in /  1012.4 hPa Calm     93 % 0.04 in /  1.02 mm
05:01 69.2 °F /  20.7 °C 67.1 °F /  19.5 °C 29.90 in /  1012.4 hPa Calm     93 % 0.05 in /  1.27 mm
05:06 69.0 °F /  20.6 °C 66.9 °F /  19.4 °C 29.90 in /  1012.4 hPa Calm     93 % 0.04 in /  1.02 mm
05:11 69.0 °F /  20.6 °C 66.9 °F /  19.4 °C 29.90 in /  1012.4 hPa SW 0.1 mph /  0.2 km/h 1.2 mph /  1.9 km/h 93 % 0.05 in /  1.27 mm
05:16 68.8 °F /  20.4 °C 66.7 °F /  19.3 °C 29.89 in /  1012.1 hPa Calm     93 % 0.05 in /  1.27 mm
05:21 68.7 °F /  20.4 °C 66.9 °F /  19.4 °C 29.90 in /  1012.4 hPa Calm     94 % 0.05 in /  1.27 mm
05:26 68.6 °F /  20.3 °C 66.8 °F /  19.3 °C 29.89 in /  1012.1 hPa Calm     94 % 0.05 in /  1.27 mm
05:31 68.6 °F /  20.3 °C 66.5 °F /  19.2 °C 29.89 in /  1012.1 hPa Calm     93 % 0.05 in /  1.27 mm
05:36 68.5 °F /  20.3 °C 66.7 °F /  19.3 °C 29.89 in /  1012.1 hPa Calm     94 % 0.05 in /  1.27 mm
05:41 68.4 °F /  20.2 °C 66.6 °F /  19.2 °C 29.89 in /  1012.1 hPa Calm   1.2 mph /  1.9 km/h 94 % 0.05 in /  1.27 mm
05:46 68.4 °F /  20.2 °C 66.6 °F /  19.2 °C 29.89 in /  1012.1 hPa Calm     94 % 0.04 in /  1.02 mm
05:51 68.3 °F /  20.2 °C 66.5 °F /  19.2 °C 29.89 in /  1012.1 hPa Calm     94 % 0.04 in /  1.02 mm
05:56 68.3 °F /  20.2 °C 66.5 °F /  19.2 °C 29.89 in /  1012.1 hPa Calm     94 % 0.04 in /  1.02 mm
06:01 68.2 °F /  20.1 °C 66.4 °F /  19.1 °C 29.89 in /  1012.1 hPa Calm     94 % 0.03 in /  0.76 mm
06:06 68.1 °F /  20.1 °C 66.3 °F /  19.1 °C 29.89 in /  1012.1 hPa Calm     94 % 0.03 in /  0.76 mm
06:12 68.1 °F /  20.1 °C 66.3 °F /  19.1 °C 29.89 in /  1012.1 hPa Calm     94 % 0.02 in /  0.51 mm
06:17 68.1 °F /  20.1 °C 66.3 °F /  19.1 °C 29.89 in /  1012.1 hPa Calm     94 % 0.02 in /  0.51 mm
06:22 68.1 °F /  20.1 °C 66.3 °F /  19.1 °C 29.88 in /  1011.7 hPa Calm     94 % 0.01 in /  0.25 mm
06:27 68.0 °F /  20 °C 66.2 °F /  19 °C 29.88 in /  1011.7 hPa Calm     94 % 0.01 in /  0.25 mm
06:32 68.0 °F /  20 °C 66.2 °F /  19 °C 29.88 in /  1011.7 hPa Calm     94 % 0.01 in /  0.25 mm
06:37 68.0 °F /  20 °C 66.2 °F /  19 °C 29.88 in /  1011.7 hPa Calm     94 % 0.01 in /  0.25 mm
06:42 68.0 °F /  20 °C 66.2 °F /  19 °C 29.88 in /  1011.7 hPa Calm     94 % 0.01 in /  0.25 mm
06:47 68.0 °F /  20 °C 66.2 °F /  19 °C 29.88 in /  1011.7 hPa Calm     94 % 0.01 in /  0.25 mm
06:52 68.0 °F /  20 °C 66.2 °F /  19 °C 29.88 in /  1011.7 hPa Calm     94 % 0.00 in /  0 mm
06:57 68.0 °F /  20 °C 66.5 °F /  19.2 °C 29.88 in /  1011.7 hPa Calm     95 % 0.00 in /  0 mm
07:02 68.1 °F /  20.1 °C 66.6 °F /  19.2 °C 29.88 in /  1011.7 hPa Calm     95 % 0.00 in /  0 mm
07:07 68.1 °F /  20.1 °C 66.6 °F /  19.2 °C 29.88 in /  1011.7 hPa Calm     95 % 0.00 in /  0 mm
07:12 68.1 °F /  20.1 °C 66.6 °F /  19.2 °C 29.88 in /  1011.7 hPa Calm     95 % 0.00 in /  0 mm
07:17 68.2 °F /  20.1 °C 66.7 °F /  19.3 °C 29.88 in /  1011.7 hPa Calm     95 % 0.00 in /  0 mm
07:22 68.2 °F /  20.1 °C 66.7 °F /  19.3 °C 29.88 in /  1011.7 hPa Calm     95 % 0.00 in /  0 mm
07:27 68.3 °F /  20.2 °C 66.8 °F /  19.3 °C 29.88 in /  1011.7 hPa Calm     95 % 0.00 in /  0 mm
07:32 68.4 °F /  20.2 °C 66.9 °F /  19.4 °C 29.89 in /  1012.1 hPa Calm     95 % 0.00 in /  0 mm
07:37 68.5 °F /  20.3 °C 67.0 °F /  19.4 °C 29.88 in /  1011.7 hPa Calm     95 % 0.00 in /  0 mm
07:42 68.6 °F /  20.3 °C 67.1 °F /  19.5 °C 29.89 in /  1012.1 hPa Calm     95 % 0.00 in /  0 mm
07:47 68.7 °F /  20.4 °C 67.2 °F /  19.6 °C 29.89 in /  1012.1 hPa Calm     95 % 0.00 in /  0 mm
07:52 68.9 °F /  20.5 °C 67.7 °F /  19.8 °C 29.88 in /  1011.7 hPa Calm     96 % 0.00 in /  0 mm
07:57 69.0 °F /  20.6 °C 67.8 °F /  19.9 °C 29.88 in /  1011.7 hPa Calm     96 % 0.00 in /  0 mm
08:02 69.1 °F /  20.6 °C 67.9 °F /  19.9 °C 29.89 in /  1012.1 hPa Calm     96 % 0.00 in /  0 mm
08:07 69.3 °F /  20.7 °C 68.1 °F /  20.1 °C 29.89 in /  1012.1 hPa Calm     96 % 0.00 in /  0 mm
08:12 69.5 °F /  20.8 °C 68.3 °F /  20.2 °C 29.88 in /  1011.7 hPa Calm     96 % 0.00 in /  0 mm
08:17 69.7 °F /  20.9 °C 68.5 °F /  20.3 °C 29.88 in /  1011.7 hPa Calm     96 % 0.00 in /  0 mm
08:22 69.8 °F /  21 °C 68.6 °F /  20.3 °C 29.89 in /  1012.1 hPa Calm     96 % 0.00 in /  0 mm
08:27 69.9 °F /  21.1 °C 69.0 °F /  20.6 °C 29.88 in /  1011.7 hPa Calm   1.2 mph /  1.9 km/h 97 % 0.00 in /  0 mm
08:32 70.1 °F /  21.2 °C 68.9 °F /  20.5 °C 29.88 in /  1011.7 hPa Calm     96 % 0.00 in /  0 mm
08:37 70.2 °F /  21.2 °C 69.0 °F /  20.6 °C 29.88 in /  1011.7 hPa Calm     96 % 0.00 in /  0 mm
08:42 70.3 °F /  21.3 °C 69.4 °F /  20.8 °C 29.89 in /  1012.1 hPa Calm     97 % 0.00 in /  0 mm
08:48 70.4 °F /  21.3 °C 69.2 °F /  20.7 °C 29.89 in /  1012.1 hPa Calm     96 % 0.00 in /  0 mm
08:53 70.5 °F /  21.4 °C 69.3 °F /  20.7 °C 29.89 in /  1012.1 hPa Calm     96 % 0.00 in /  0 mm
08:58 70.5 °F /  21.4 °C 69.3 °F /  20.7 °C 29.89 in /  1012.1 hPa Calm     96 % 0.00 in /  0 mm
09:03 70.6 °F /  21.4 °C 69.4 °F /  20.8 °C 29.89 in /  1012.1 hPa Calm     96 % 0.00 in /  0 mm
09:08 70.7 °F /  21.5 °C 69.5 °F /  20.8 °C 29.89 in /  1012.1 hPa SW 0.1 mph /  0.2 km/h 1.2 mph /  1.9 km/h 96 % 0.00 in /  0 mm
09:13 70.7 °F /  21.5 °C 69.2 °F /  20.7 °C 29.89 in /  1012.1 hPa Calm     95 % 0.00 in /  0 mm
09:18 70.9 °F /  21.6 °C 69.7 °F /  20.9 °C 29.89 in /  1012.1 hPa SW 0.1 mph /  0.2 km/h 2.3 mph /  3.7 km/h 96 % 0.00 in /  0 mm
09:23 71.0 °F /  21.7 °C 69.5 °F /  20.8 °C 29.89 in /  1012.1 hPa Calm     95 % 0.00 in /  0 mm
09:28 70.8 °F /  21.6 °C 68.7 °F /  20.4 °C 29.89 in /  1012.1 hPa Calm     93 % 0.00 in /  0 mm
09:33 71.0 °F /  21.7 °C 68.9 °F /  20.5 °C 29.89 in /  1012.1 hPa Calm     93 % 0.00 in /  0 mm
09:38 71.2 °F /  21.8 °C 69.1 °F /  20.6 °C 29.89 in /  1012.1 hPa Calm     93 % 0.00 in /  0 mm
09:43 71.3 °F /  21.8 °C 68.9 °F /  20.5 °C 29.89 in /  1012.1 hPa Calm     92 % 0.00 in /  0 mm
09:48 71.4 °F /  21.9 °C 69.0 °F /  20.6 °C 29.88 in /  1011.7 hPa Calm     92 % 0.00 in /  0 mm
09:53 71.5 °F /  21.9 °C 69.1 °F /  20.6 °C 29.89 in /  1012.1 hPa Calm     92 % 0.00 in /  0 mm
09:58 71.6 °F /  22 °C 69.2 °F /  20.7 °C 29.89 in /  1012.1 hPa Calm     92 % 0.00 in /  0 mm
10:03 71.7 °F /  22.1 °C 69.3 °F /  20.7 °C 29.89 in /  1012.1 hPa Calm     92 % 0.00 in /  0 mm
10:08 71.9 °F /  22.2 °C 69.4 °F /  20.8 °C 29.89 in /  1012.1 hPa Calm     92 % 0.00 in /  0 mm
10:13 72.0 °F /  22.2 °C 69.5 °F /  20.8 °C 29.89 in /  1012.1 hPa Calm     92 % 0.00 in /  0 mm
10:18 72.1 °F /  22.3 °C 70.0 °F /  21.1 °C 29.89 in /  1012.1 hPa Calm     93 % 0.00 in /  0 mm
10:23 72.2 °F /  22.3 °C 70.1 °F /  21.2 °C 29.88 in /  1011.7 hPa Calm     93 % 0.00 in /  0 mm
10:28 72.4 °F /  22.4 °C 69.6 °F /  20.9 °C 29.88 in /  1011.7 hPa Calm     91 % 0.00 in /  0 mm
10:33 72.4 °F /  22.4 °C 69.6 °F /  20.9 °C 29.88 in /  1011.7 hPa Calm     91 % 0.00 in /  0 mm
10:38 72.6 °F /  22.6 °C 69.8 °F /  21 °C 29.89 in /  1012.1 hPa East 0.2 mph /  0.3 km/h 2.3 mph /  3.7 km/h 91 % 0.00 in /  0 mm
10:43 72.7 °F /  22.6 °C 69.9 °F /  21.1 °C 29.88 in /  1011.7 hPa Calm     91 % 0.00 in /  0 mm
10:45 72.8 °F /  22.7 °C 70.0 °F /  21.1 °C 29.88 in /  1011.7 hPa Calm     91 % 0.00 in /  0 mm
10:50 72.9 °F /  22.7 °C 69.8 °F /  21 °C 29.88 in /  1011.7 hPa Calm     90 % 0.00 in /  0 mm
10:55 72.9 °F /  22.7 °C 69.5 °F /  20.8 °C 29.88 in /  1011.7 hPa Calm     89 % 0.00 in /  0 mm
11:00 72.9 °F /  22.7 °C 69.5 °F /  20.8 °C 29.88 in /  1011.7 hPa Calm     89 % 0.00 in /  0 mm
11:05 73.0 °F /  22.8 °C 69.6 °F /  20.9 °C 29.88 in /  1011.7 hPa Calm     89 % 0.00 in /  0 mm
11:10 73.0 °F /  22.8 °C 69.6 °F /  20.9 °C 29.88 in /  1011.7 hPa Calm     89 % 0.00 in /  0 mm
11:15 73.1 °F /  22.8 °C 70.0 °F /  21.1 °C 29.88 in /  1011.7 hPa Calm     90 % 0.00 in /  0 mm
11:20 73.1 °F /  22.8 °C 70.0 °F /  21.1 °C 29.88 in /  1011.7 hPa Calm     90 % 0.00 in /  0 mm
11:25 73.2 °F /  22.9 °C 70.1 °F /  21.2 °C 29.87 in /  1011.4 hPa Calm     90 % 0.00 in /  0 mm
11:30 73.3 °F /  22.9 °C 70.5 °F /  21.4 °C 29.87 in /  1011.4 hPa Calm     91 % 0.00 in /  0 mm
11:35 73.5 °F /  23.1 °C 70.7 °F /  21.5 °C 29.87 in /  1011.4 hPa Calm     91 % 0.00 in /  0 mm
11:40 73.5 °F /  23.1 °C 70.7 °F /  21.5 °C 29.87 in /  1011.4 hPa Calm     91 % 0.00 in /  0 mm
11:45 73.6 °F /  23.1 °C 70.8 °F /  21.6 °C 29.87 in /  1011.4 hPa Calm     91 % 0.00 in /  0 mm
11:50 73.7 °F /  23.2 °C 70.9 °F /  21.6 °C 29.87 in /  1011.4 hPa Calm     91 % 0.00 in /  0 mm
11:55 73.7 °F /  23.2 °C 70.9 °F /  21.6 °C 29.87 in /  1011.4 hPa East 0.2 mph /  0.3 km/h 1.2 mph /  1.9 km/h 91 % 0.00 in /  0 mm
12:00 73.9 °F /  23.3 °C 71.4 °F /  21.9 °C 29.87 in /  1011.4 hPa Calm   1.2 mph /  1.9 km/h 92 % 0.00 in /  0 mm
12:06 74.0 °F /  23.3 °C 71.5 °F /  21.9 °C 29.88 in /  1011.7 hPa Calm   1.0 mph /  1.6 km/h 92 % 0.00 in /  0 mm
12:11 74.1 °F /  23.4 °C 71.6 °F /  22 °C 29.87 in /  1011.4 hPa Calm   1.0 mph /  1.6 km/h 92 % 0.00 in /  0 mm
12:16 74.1 °F /  23.4 °C 71.3 °F /  21.8 °C 29.87 in /  1011.4 hPa Calm   3.0 mph /  4.8 km/h 91 % 0.00 in /  0 mm
12:21 74.2 °F /  23.4 °C 71.7 °F /  22.1 °C 29.87 in /  1011.4 hPa Calm     92 % 0.00 in /  0 mm
12:26 74.3 °F /  23.5 °C 71.5 °F /  21.9 °C 29.87 in /  1011.4 hPa Calm     91 % 0.00 in /  0 mm
12:31 74.4 °F /  23.6 °C 71.6 °F /  22 °C 29.87 in /  1011.4 hPa Calm   3.0 mph /  4.8 km/h 91 % 0.00 in /  0 mm
12:36 74.4 °F /  23.6 °C 71.3 °F /  21.8 °C 29.86 in /  1011.1 hPa Calm   3.0 mph /  4.8 km/h 90 % 0.00 in /  0 mm
12:41 74.3 °F /  23.5 °C 70.8 °F /  21.6 °C 29.86 in /  1011.1 hPa Calm   1.0 mph /  1.6 km/h 89 % 0.00 in /  0 mm
12:45 74.4 °F /  23.6 °C 70.9 °F /  21.6 °C 29.87 in /  1011.4 hPa Calm     89 % 0.00 in /  0 mm
12:50 74.4 °F /  23.6 °C 71.3 °F /  21.8 °C 29.87 in /  1011.4 hPa SE 0.5 mph /  0.8 km/h 2.3 mph /  3.7 km/h 90 % 0.00 in /  0 mm
12:55 74.4 °F /  23.6 °C 71.3 °F /  21.8 °C 29.86 in /  1011.1 hPa Calm   1.2 mph /  1.9 km/h 90 % 0.00 in /  0 mm
13:00 74.4 °F /  23.6 °C 71.3 °F /  21.8 °C 29.87 in /  1011.4 hPa SE 1.7 mph /  2.7 km/h 3.5 mph /  5.6 km/h 90 % 0.00 in /  0 mm
13:06 74.4 °F /  23.6 °C 70.6 °F /  21.4 °C 29.87 in /  1011.4 hPa Calm   6.0 mph /  9.7 km/h 88 % 0.00 in /  0 mm
13:11 74.4 °F /  23.6 °C 70.9 °F /  21.6 °C 29.87 in /  1011.4 hPa Calm   2.0 mph /  3.2 km/h 89 % 0.00 in /  0 mm
13:16 74.4 °F /  23.6 °C 70.6 °F /  21.4 °C 29.87 in /  1011.4 hPa SE 2.0 mph /  3.2 km/h 8.0 mph /  12.9 km/h 88 % 0.00 in /  0 mm
13:21 74.5 °F /  23.6 °C 70.7 °F /  21.5 °C 29.86 in /  1011.1 hPa Calm   3.0 mph /  4.8 km/h 88 % 0.00 in /  0 mm
13:26 74.5 °F /  23.6 °C 71.0 °F /  21.7 °C 29.86 in /  1011.1 hPa Calm   2.0 mph /  3.2 km/h 89 % 0.00 in /  0 mm
13:31 74.5 °F /  23.6 °C 71.0 °F /  21.7 °C 29.86 in /  1011.1 hPa Calm   5.0 mph /  8 km/h 89 % 0.00 in /  0 mm
13:36 74.5 °F /  23.6 °C 71.0 °F /  21.7 °C 29.87 in /  1011.4 hPa Calm   5.0 mph /  8 km/h 89 % 0.00 in /  0 mm
13:41 74.4 °F /  23.6 °C 70.6 °F /  21.4 °C 29.87 in /  1011.4 hPa SE 1.0 mph /  1.6 km/h 3.0 mph /  4.8 km/h 88 % 0.00 in /  0 mm
13:46 74.3 °F /  23.5 °C 70.8 °F /  21.6 °C 29.86 in /  1011.1 hPa SE 1.0 mph /  1.6 km/h 3.0 mph /  4.8 km/h 89 % 0.00 in /  0 mm
13:51 74.2 °F /  23.4 °C 70.7 °F /  21.5 °C 29.86 in /  1011.1 hPa Calm   2.0 mph /  3.2 km/h 89 % 0.00 in /  0 mm
13:56 74.2 °F /  23.4 °C 70.7 °F /  21.5 °C 29.86 in /  1011.1 hPa Calm   3.0 mph /  4.8 km/h 89 % 0.00 in /  0 mm
14:01 74.2 °F /  23.4 °C 71.1 °F /  21.7 °C 29.86 in /  1011.1 hPa Calm   1.2 mph /  1.9 km/h 90 % 0.00 in /  0 mm
14:06 74.2 °F /  23.4 °C 71.1 °F /  21.7 °C 29.85 in /  1010.7 hPa ESE 0.9 mph /  1.4 km/h 3.5 mph /  5.6 km/h 90 % 0.00 in /  0 mm
14:11 74.2 °F /  23.4 °C 71.1 °F /  21.7 °C 29.85 in /  1010.7 hPa ESE 0.5 mph /  0.8 km/h 2.0 mph /  3.2 km/h 90 % 0.00 in /  0 mm
14:16 74.1 °F /  23.4 °C 71.0 °F /  21.7 °C 29.85 in /  1010.7 hPa SE 0.3 mph /  0.5 km/h 3.5 mph /  5.6 km/h 90 % 0.01 in /  0.25 mm
14:21 74.1 °F /  23.4 °C 71.3 °F /  21.8 °C 29.85 in /  1010.7 hPa Calm     91 % 0.01 in /  0.25 mm
14:26 74.0 °F /  23.3 °C 71.2 °F /  21.8 °C 29.85 in /  1010.7 hPa SE 0.3 mph /  0.5 km/h 3.5 mph /  5.6 km/h 91 % 0.01 in /  0.25 mm
14:31 74.0 °F /  23.3 °C 71.2 °F /  21.8 °C 29.85 in /  1010.7 hPa SE 0.4 mph /  0.6 km/h 1.2 mph /  1.9 km/h 91 % 0.01 in /  0.25 mm
14:36 73.9 °F /  23.3 °C 71.1 °F /  21.7 °C 29.85 in /  1010.7 hPa SE 0.3 mph /  0.5 km/h 2.0 mph /  3.2 km/h 91 % 0.01 in /  0.25 mm
14:41 73.9 °F /  23.3 °C 71.1 °F /  21.7 °C 29.86 in /  1011.1 hPa Calm     91 % 0.01 in /  0.25 mm
14:46 73.9 °F /  23.3 °C 71.1 °F /  21.7 °C 29.85 in /  1010.7 hPa Calm   1.2 mph /  1.9 km/h 91 % 0.01 in /  0.25 mm
14:51 73.8 °F /  23.2 °C 71.0 °F /  21.7 °C 29.85 in /  1010.7 hPa SE 0.3 mph /  0.5 km/h 2.3 mph /  3.7 km/h 91 % 0.01 in /  0.25 mm
14:56 73.8 °F /  23.2 °C 71.0 °F /  21.7 °C 29.85 in /  1010.7 hPa Calm     91 % 0.01 in /  0.25 mm
15:01 73.9 °F /  23.3 °C 71.4 °F /  21.9 °C 29.85 in /  1010.7 hPa Calm   1.0 mph /  1.6 km/h 92 % 0.01 in /  0.25 mm
15:06 74.0 °F /  23.3 °C 71.5 °F /  21.9 °C 29.85 in /  1010.7 hPa Calm     92 % 0.01 in /  0.25 mm
15:11 74.0 °F /  23.3 °C 71.5 °F /  21.9 °C 29.85 in /  1010.7 hPa Calm     92 % 0.01 in /  0.25 mm
15:16 73.9 °F /  23.3 °C 71.4 °F /  21.9 °C 29.85 in /  1010.7 hPa Calm     92 % 0.00 in /  0 mm
15:21 73.9 °F /  23.3 °C 71.1 °F /  21.7 °C 29.85 in /  1010.7 hPa Calm     91 % 0.00 in /  0 mm
15:26 73.9 °F /  23.3 °C 71.1 °F /  21.7 °C 29.85 in /  1010.7 hPa Calm     91 % 0.01 in /  0.25 mm
15:31 73.9 °F /  23.3 °C 71.4 °F /  21.9 °C 29.84 in /  1010.4 hPa Calm     92 % 0.01 in /  0.25 mm
15:36 74.0 °F /  23.3 °C 71.5 °F /  21.9 °C 29.84 in /  1010.4 hPa Calm     92 % 0.01 in /  0.25 mm
15:41 74.0 °F /  23.3 °C 71.5 °F /  21.9 °C 29.84 in /  1010.4 hPa Calm     92 % 0.01 in /  0.25 mm
15:46 73.9 °F /  23.3 °C 71.4 °F /  21.9 °C 29.84 in /  1010.4 hPa Calm   1.2 mph /  1.9 km/h 92 % 0.02 in /  0.51 mm
15:51 73.7 °F /  23.2 °C 70.9 °F /  21.6 °C 29.84 in /  1010.4 hPa SE 1.9 mph /  3.1 km/h 4.0 mph /  6.4 km/h 91 % 0.02 in /  0.51 mm
15:56 73.5 °F /  23.1 °C 71.0 °F /  21.7 °C 29.85 in /  1010.7 hPa Calm     92 % 0.02 in /  0.51 mm
16:01 73.4 °F /  23 °C 70.9 °F /  21.6 °C 29.84 in /  1010.4 hPa SSE 0.1 mph /  0.2 km/h 2.3 mph /  3.7 km/h 92 % 0.02 in /  0.51 mm
16:02 73.4 °F /  23 °C 70.9 °F /  21.6 °C 29.84 in /  1010.4 hPa SSE 0.1 mph /  0.2 km/h 2.3 mph /  3.7 km/h 92 % 0.02 in /  0.51 mm
16:07 73.3 °F /  22.9 °C 70.8 °F /  21.6 °C 29.84 in /  1010.4 hPa Calm     92 % 0.02 in /  0.51 mm
16:11 73.3 °F /  22.9 °C 70.8 °F /  21.6 °C 29.84 in /  1010.4 hPa Calm     92 % 0.02 in /  0.51 mm
16:16 73.3 °F /  22.9 °C 70.8 °F /  21.6 °C 29.84 in /  1010.4 hPa Calm     92 % 0.02 in /  0.51 mm
16:22 73.3 °F /  22.9 °C 71.2 °F /  21.8 °C 29.84 in /  1010.4 hPa Calm     93 % 0.02 in /  0.51 mm
16:27 73.3 °F /  22.9 °C 71.2 °F /  21.8 °C 29.84 in /  1010.4 hPa Calm     93 % 0.01 in /  0.25 mm
16:32 73.3 °F /  22.9 °C 71.2 °F /  21.8 °C 29.83 in /  1010 hPa Calm     93 % 0.01 in /  0.25 mm
16:37 73.2 °F /  22.9 °C 71.1 °F /  21.7 °C 29.83 in /  1010 hPa Calm     93 % 0.01 in /  0.25 mm
16:42 73.2 °F /  22.9 °C 71.1 °F /  21.7 °C 29.84 in /  1010.4 hPa SSE 0.4 mph /  0.6 km/h 2.3 mph /  3.7 km/h 93 % 0.00 in /  0 mm
16:47 73.2 °F /  22.9 °C 71.1 °F /  21.7 °C 29.83 in /  1010 hPa Calm     93 % 0.00 in /  0 mm
16:49 73.2 °F /  22.9 °C 71.1 °F /  21.7 °C 29.83 in /  1010 hPa Calm     93 % 0.00 in /  0 mm
16:54 73.2 °F /  22.9 °C 71.1 °F /  21.7 °C 29.84 in /  1010.4 hPa Calm     93 % 0.00 in /  0 mm
16:59 73.1 °F /  22.8 °C 71.0 °F /  21.7 °C 29.84 in /  1010.4 hPa Calm     93 % 0.00 in /  0 mm
17:04 73.1 °F /  22.8 °C 71.0 °F /  21.7 °C 29.84 in /  1010.4 hPa Calm     93 % 0.00 in /  0 mm
17:09 73.1 °F /  22.8 °C 71.0 °F /  21.7 °C 29.84 in /  1010.4 hPa Calm     93 % 0.00 in /  0 mm
17:14 73.0 °F /  22.8 °C 70.9 °F /  21.6 °C 29.84 in /  1010.4 hPa Calm     93 % 0.00 in /  0 mm
17:19 73.0 °F /  22.8 °C 70.9 °F /  21.6 °C 29.84 in /  1010.4 hPa SE 1.3 mph /  2.1 km/h 3.5 mph /  5.6 km/h 93 % 0.00 in /  0 mm
17:24 73.0 °F /  22.8 °C 70.9 °F /  21.6 °C 29.84 in /  1010.4 hPa SE 0.1 mph /  0.2 km/h 1.0 mph /  1.6 km/h 93 % 0.00 in /  0 mm
17:29 73.1 °F /  22.8 °C 71.0 °F /  21.7 °C 29.84 in /  1010.4 hPa Calm     93 % 0.00 in /  0 mm
17:34 73.2 °F /  22.9 °C 71.1 °F /  21.7 °C 29.84 in /  1010.4 hPa Calm     93 % 0.00 in /  0 mm
17:39 73.1 °F /  22.8 °C 71.0 °F /  21.7 °C 29.84 in /  1010.4 hPa Calm     93 % 0.00 in /  0 mm
17:44 73.1 °F /  22.8 °C 71.0 °F /  21.7 °C 29.84 in /  1010.4 hPa Calm   1.2 mph /  1.9 km/h 93 % 0.00 in /  0 mm
17:49 73.2 °F /  22.9 °C 70.7 °F /  21.5 °C 29.84 in /  1010.4 hPa SE 1.1 mph /  1.8 km/h 3.0 mph /  4.8 km/h 92 % 0.00 in /  0 mm
17:54 73.2 °F /  22.9 °C 70.7 °F /  21.5 °C 29.84 in /  1010.4 hPa Calm     92 % 0.00 in /  0 mm
17:59 73.2 °F /  22.9 °C 70.7 °F /  21.5 °C 29.85 in /  1010.7 hPa SSE 0.2 mph /  0.3 km/h   92 % 0.00 in /  0 mm
18:04 73.2 °F /  22.9 °C 70.7 °F /  21.5 °C 29.85 in /  1010.7 hPa Calm     92 % 0.00 in /  0 mm
18:09 73.2 °F /  22.9 °C 70.7 °F /  21.5 °C 29.85 in /  1010.7 hPa SSE 0.9 mph /  1.4 km/h 3.0 mph /  4.8 km/h 92 % 0.00 in /  0 mm
18:15 73.2 °F /  22.9 °C 70.7 °F /  21.5 °C 29.85 in /  1010.7 hPa SSE 0.3 mph /  0.5 km/h 2.3 mph /  3.7 km/h 92 % 0.00 in /  0 mm
18:20 73.1 °F /  22.8 °C 70.6 °F /  21.4 °C 29.85 in /  1010.7 hPa Calm   2.3 mph /  3.7 km/h 92 % 0.00 in /  0 mm
18:25 73.0 °F /  22.8 °C 70.5 °F /  21.4 °C 29.85 in /  1010.7 hPa SSE 1.2 mph /  1.9 km/h 3.5 mph /  5.6 km/h 92 % 0.00 in /  0 mm
18:30 73.0 °F /  22.8 °C 70.5 °F /  21.4 °C 29.85 in /  1010.7 hPa SE 0.3 mph /  0.5 km/h 2.3 mph /  3.7 km/h 92 % 0.00 in /  0 mm
18:35 72.9 °F /  22.7 °C 70.4 °F /  21.3 °C 29.85 in /  1010.7 hPa SE 0.3 mph /  0.5 km/h 3.5 mph /  5.6 km/h 92 % 0.00 in /  0 mm
18:40 72.9 °F /  22.7 °C 70.4 °F /  21.3 °C 29.85 in /  1010.7 hPa SE 1.1 mph /  1.8 km/h 5.0 mph /  8 km/h 92 % 0.00 in /  0 mm
18:45 72.8 °F /  22.7 °C 70.3 °F /  21.3 °C 29.85 in /  1010.7 hPa Calm     92 % 0.00 in /  0 mm
18:50 72.8 °F /  22.7 °C 70.3 °F /  21.3 °C 29.86 in /  1011.1 hPa Calm     92 % 0.00 in /  0 mm
18:55 72.7 °F /  22.6 °C 70.2 °F /  21.2 °C 29.85 in /  1010.7 hPa Calm     92 % 0.00 in /  0 mm
19:00 72.6 °F /  22.6 °C 70.1 °F /  21.2 °C 29.85 in /  1010.7 hPa SE 0.1 mph /  0.2 km/h 2.3 mph /  3.7 km/h 92 % 0.00 in /  0 mm
19:05 72.6 °F /  22.6 °C 70.1 °F /  21.2 °C 29.85 in /  1010.7 hPa Calm     92 % 0.00 in /  0 mm
19:10 72.6 °F /  22.6 °C 70.1 °F /  21.2 °C 29.85 in /  1010.7 hPa SE 0.2 mph /  0.3 km/h 3.5 mph /  5.6 km/h 92 % 0.00 in /  0 mm
19:15 72.6 °F /  22.6 °C 70.1 °F /  21.2 °C 29.85 in /  1010.7 hPa Calm     92 % 0.00 in /  0 mm
19:20 72.5 °F /  22.5 °C 70.0 °F /  21.1 °C 29.85 in /  1010.7 hPa Calm     92 % 0.00 in /  0 mm
19:25 72.5 °F /  22.5 °C 70.0 °F /  21.1 °C 29.85 in /  1010.7 hPa SE 0.1 mph /  0.2 km/h 1.2 mph /  1.9 km/h 92 % 0.00 in /  0 mm
19:30 72.4 °F /  22.4 °C 69.9 °F /  21.1 °C 29.85 in /  1010.7 hPa Calm     92 % 0.00 in /  0 mm
19:35 72.4 °F /  22.4 °C 69.9 °F /  21.1 °C 29.85 in /  1010.7 hPa SE 0.1 mph /  0.2 km/h 2.3 mph /  3.7 km/h 92 % 0.00 in /  0 mm
19:40 72.4 °F /  22.4 °C 70.3 °F /  21.3 °C 29.85 in /  1010.7 hPa SE 1.9 mph /  3.1 km/h 4.0 mph /  6.4 km/h 93 % 0.00 in /  0 mm
19:45 72.4 °F /  22.4 °C 70.3 °F /  21.3 °C 29.85 in /  1010.7 hPa Calm   1.2 mph /  1.9 km/h 93 % 0.00 in /  0 mm
19:50 72.3 °F /  22.4 °C 70.2 °F /  21.2 °C 29.85 in /  1010.7 hPa SE 0.3 mph /  0.5 km/h 3.5 mph /  5.6 km/h 93 % 0.00 in /  0 mm
19:55 72.2 °F /  22.3 °C 70.1 °F /  21.2 °C 29.85 in /  1010.7 hPa SE 1.6 mph /  2.6 km/h 3.5 mph /  5.6 km/h 93 % 0.00 in /  0 mm
20:00 72.2 °F /  22.3 °C 70.1 °F /  21.2 °C 29.85 in /  1010.7 hPa SE 1.6 mph /  2.6 km/h 3.5 mph /  5.6 km/h 93 % 0.00 in /  0 mm
20:05 72.1 °F /  22.3 °C 70.0 °F /  21.1 °C 29.85 in /  1010.7 hPa SE 0.6 mph /  1 km/h 2.3 mph /  3.7 km/h 93 % 0.00 in /  0 mm
20:10 72.1 °F /  22.3 °C 70.0 °F /  21.1 °C 29.85 in /  1010.7 hPa SE 0.8 mph /  1.3 km/h 4.0 mph /  6.4 km/h 93 % 0.00 in /  0 mm
20:15 72.1 °F /  22.3 °C 70.0 °F /  21.1 °C 29.85 in /  1010.7 hPa Calm   1.2 mph /  1.9 km/h 93 % 0.00 in /  0 mm
20:17 72.0 °F /  22.2 °C 69.9 °F /  21.1 °C 29.86 in /  1011.1 hPa SE 0.3 mph /  0.5 km/h 2.3 mph /  3.7 km/h 93 % 0.00 in /  0 mm
20:22 72.0 °F /  22.2 °C 69.9 °F /  21.1 °C 29.86 in /  1011.1 hPa Calm     93 % 0.00 in /  0 mm
20:27 72.0 °F /  22.2 °C 69.9 °F /  21.1 °C 29.85 in /  1010.7 hPa Calm   1.2 mph /  1.9 km/h 93 % 0.00 in /  0 mm
20:32 71.9 °F /  22.2 °C 69.8 °F /  21 °C 29.85 in /  1010.7 hPa Calm   1.2 mph /  1.9 km/h 93 % 0.00 in /  0 mm
20:37 71.8 °F /  22.1 °C 69.7 °F /  20.9 °C 29.85 in /  1010.7 hPa SE 0.1 mph /  0.2 km/h 2.3 mph /  3.7 km/h 93 % 0.00 in /  0 mm
20:42 71.7 °F /  22.1 °C 69.6 °F /  20.9 °C 29.85 in /  1010.7 hPa SE 1.4 mph /  2.3 km/h 3.5 mph /  5.6 km/h 93 % 0.00 in /  0 mm
20:47 71.7 °F /  22.1 °C 69.6 °F /  20.9 °C 29.86 in /  1011.1 hPa SE 0.3 mph /  0.5 km/h 2.3 mph /  3.7 km/h 93 % 0.00 in /  0 mm
20:49 71.6 °F /  22 °C 69.5 °F /  20.8 °C 29.86 in /  1011.1 hPa Calm     93 % 0.00 in /  0 mm
20:54 71.6 °F /  22 °C 69.8 °F /  21 °C 29.86 in /  1011.1 hPa SE 0.3 mph /  0.5 km/h 1.2 mph /  1.9 km/h 94 % 0.00 in /  0 mm
20:59 71.5 °F /  21.9 °C 69.7 °F /  20.9 °C 29.86 in /  1011.1 hPa Calm   2.3 mph /  3.7 km/h 94 % 0.00 in /  0 mm
21:04 71.5 °F /  21.9 °C 69.7 °F /  20.9 °C 29.86 in /  1011.1 hPa Calm   1.2 mph /  1.9 km/h 94 % 0.00 in /  0 mm
21:09 71.4 °F /  21.9 °C 69.6 °F /  20.9 °C 29.86 in /  1011.1 hPa Calm     94 % 0.00 in /  0 mm
21:14 71.3 °F /  21.8 °C 69.5 °F /  20.8 °C 29.86 in /  1011.1 hPa Calm     94 % 0.00 in /  0 mm
21:19 71.3 °F /  21.8 °C 69.5 °F /  20.8 °C 29.86 in /  1011.1 hPa SE 0.2 mph /  0.3 km/h 2.3 mph /  3.7 km/h 94 % 0.00 in /  0 mm
21:24 71.3 °F /  21.8 °C 69.5 °F /  20.8 °C 29.85 in /  1010.7 hPa Calm     94 % 0.00 in /  0 mm
21:29 71.2 °F /  21.8 °C 69.4 °F /  20.8 °C 29.85 in /  1010.7 hPa Calm   1.2 mph /  1.9 km/h 94 % 0.00 in /  0 mm
21:34 71.2 °F /  21.8 °C 69.4 °F /  20.8 °C 29.86 in /  1011.1 hPa Calm     94 % 0.00 in /  0 mm
21:40 71.1 °F /  21.7 °C 69.3 °F /  20.7 °C 29.86 in /  1011.1 hPa Calm     94 % 0.00 in /  0 mm
21:45 71.1 °F /  21.7 °C 69.3 °F /  20.7 °C 29.86 in /  1011.1 hPa Calm     94 % 0.00 in /  0 mm
21:50 71.0 °F /  21.7 °C 69.2 °F /  20.7 °C 29.86 in /  1011.1 hPa Calm     94 % 0.00 in /  0 mm
21:55 71.0 °F /  21.7 °C 69.2 °F /  20.7 °C 29.86 in /  1011.1 hPa Calm     94 % 0.00 in /  0 mm
22:00 71.0 °F /  21.7 °C 69.2 °F /  20.7 °C 29.86 in /  1011.1 hPa Calm     94 % 0.00 in /  0 mm
22:05 70.9 °F /  21.6 °C 69.1 °F /  20.6 °C 29.86 in /  1011.1 hPa Calm     94 % 0.00 in /  0 mm
22:10 70.9 °F /  21.6 °C 69.1 °F /  20.6 °C 29.86 in /  1011.1 hPa Calm     94 % 0.00 in /  0 mm
22:15 70.8 °F /  21.6 °C 69.0 °F /  20.6 °C 29.86 in /  1011.1 hPa Calm     94 % 0.00 in /  0 mm
22:20 70.8 °F /  21.6 °C 69.0 °F /  20.6 °C 29.86 in /  1011.1 hPa Calm   1.2 mph /  1.9 km/h 94 % 0.00 in /  0 mm
22:25 70.8 °F /  21.6 °C 69.0 °F /  20.6 °C 29.86 in /  1011.1 hPa Calm     94 % 0.00 in /  0 mm
22:30 70.8 °F /  21.6 °C 69.3 °F /  20.7 °C 29.86 in /  1011.1 hPa Calm     95 % 0.00 in /  0 mm
22:35 70.8 °F /  21.6 °C 69.3 °F /  20.7 °C 29.86 in /  1011.1 hPa Calm     95 % 0.00 in /  0 mm
22:40 70.8 °F /  21.6 °C 69.3 °F /  20.7 °C 29.86 in /  1011.1 hPa Calm     95 % 0.00 in /  0 mm
22:45 70.8 °F /  21.6 °C 69.3 °F /  20.7 °C 29.86 in /  1011.1 hPa Calm     95 % 0.00 in /  0 mm
22:50 70.8 °F /  21.6 °C 69.3 °F /  20.7 °C 29.86 in /  1011.1 hPa Calm     95 % 0.00 in /  0 mm
22:55 70.8 °F /  21.6 °C 69.3 °F /  20.7 °C 29.86 in /  1011.1 hPa Calm     95 % 0.00 in /  0 mm
23:00 70.8 °F /  21.6 °C 69.3 °F /  20.7 °C 29.86 in /  1011.1 hPa Calm     95 % 0.00 in /  0 mm
23:05 70.8 °F /  21.6 °C 69.3 °F /  20.7 °C 29.85 in /  1010.7 hPa Calm     95 % 0.00 in /  0 mm
23:10 70.7 °F /  21.5 °C 69.2 °F /  20.7 °C 29.85 in /  1010.7 hPa Calm     95 % 0.00 in /  0 mm
23:17 70.7 °F /  21.5 °C 68.9 °F /  20.5 °C 29.85 in /  1010.7 hPa Calm     94 % 0.00 in /  0 mm
23:22 70.6 °F /  21.4 °C 68.8 °F /  20.4 °C 29.85 in /  1010.7 hPa Calm     94 % 0.00 in /  0 mm
23:27 70.5 °F /  21.4 °C 68.7 °F /  20.4 °C 29.85 in /  1010.7 hPa Calm     94 % 0.00 in /  0 mm
23:30 70.5 °F /  21.4 °C 68.7 °F /  20.4 °C 29.85 in /  1010.7 hPa Calm     94 % 0.00 in /  0 mm
23:35 70.4 °F /  21.3 °C 68.6 °F /  20.3 °C 29.85 in /  1010.7 hPa Calm     94 % 0.00 in /  0 mm
23:40 70.3 °F /  21.3 °C 68.5 °F /  20.3 °C 29.85 in /  1010.7 hPa Calm     94 % 0.00 in /  0 mm
23:45 70.2 °F /  21.2 °C 68.4 °F /  20.2 °C 29.85 in /  1010.7 hPa Calm     94 % 0.00 in /  0 mm
23:50 70.1 °F /  21.2 °C 68.3 °F /  20.2 °C 29.85 in /  1010.7 hPa Calm     94 % 0.00 in /  0 mm
23:55 70.0 °F /  21.1 °C 68.2 °F /  20.1 °C 29.85 in /  1010.7 hPa Calm     94 % 0.00 in /  0 mm
Crab Meadow Weather
Compliments of Weather Underground - 3 mb

Script developed by  Jim McMurry - jmcmurry@mwt.net Adapted for the template by  Wim van der Kuil - Leuven-Template.eu

Extremes: The heaviest hailstones on record, weighing up to 2.25 pounds were reported to have killed 92 people in the Gopalganj district of Bangladesh on April 14, 1986.